Regional Weather Roundup
Issued by NWS

Home | Current Version | Previous Version | Graphics & Text | Print | Product List | Glossary On
Versions: 1 2 3 4 5 6 7 8 9 10 11 12 13 14 15 16 17 18 19 20 21 22 23 24 25 26 27 28 29 30 31 32 33 34 35 36 37 38 39 40 41 42 43 44 45 46 47 48 49 50
933
ASUS43 KLOT 301004
RWRIL

ILLINOIS REGIONAL WEATHER ROUNDUP
NATIONAL WEATHER SERVICE CHICAGO/ROMEOVILLE IL
500 AM CDT SUN APR 30 2017

NOTE: "FAIR" INDICATES FEW OR NO CLOUDS BELOW 12,000 FEET WITH NO
SIGNIFICANT WEATHER AND/OR OBSTRUCTIONS TO VISIBILITY.

* THESE STATIONS ARE NOT UNDER NWS QUALITY CONTROL. THEY ALSO MAY NOT
  REPORT WEATHER SUCH AS PRECIPITATION OR FOG.

ILZ001-002-007-009-015-016-024-301100-
NORTHWEST ILLINOIS

CITY           SKY/WX    TMP DP  RH WIND       PRES   REMARKS
MOLINE         CLOUDY    45  41  86 E20       29.89F
STERLING*      CLOUDY    43  41  93 E15       29.92S
SAVANNA*       CLOUDY    43  40  89 NE16      29.94S
$$

ILZ003-004-008-010-011-017-018-301100-
NORTH CENTRAL ILLINOIS

CITY           SKY/WX    TMP DP  RH WIND       PRES   REMARKS
ROCKFORD       CLOUDY    43  39  86 NE15G23   29.98R
FREEPORT*      CLOUDY    41  39  93 NE16G24   29.97R
ROCHELLE*      CLOUDY    42  40  96 NE20G26   29.92S
DE KALB*       CLOUDY    41  40  96 NE21      29.93S
$$

ILZ005-006-012>014-019>023-301100-
NORTHEAST ILLINOIS

CITY           SKY/WX    TMP DP  RH WIND       PRES   REMARKS
CHICAGO-OHARE  DRIZZLE   42  40  92 NE13      29.93R
CHICAGO-MIDWAY CLOUDY    44  43  96 NE15G23   29.91F
AURORA         CLOUDY    43  42  97 NE14G24   29.91R
LANSING*       LGT RAIN  45  45 100 NE6       29.90F
WAUKEGAN       CLOUDY    40  40 100 NE16G25   29.95R FOG
DUPAGE AIRPORT CLOUDY    42  42 100 NE15      29.92R FOG
WHEELING       CLOUDY    41  41 100 NE10G21   29.96R FOG
MORRIS*        RAIN      44  43  95 NE7       29.89R
NORTHERLY ISL    N/A     43  41  93 NE18        N/A
$$

LMZ740>746-301100-
SOUTHERN LAKE MICHIGAN

STATION/POSITION SKY/WX   TEMP    WIND        PRES    VSBY  WAVE
                          AIR SEA DIR/SP/G                  HT/PER
                          (F)     (DEG/KT/KT) (MB)    (MI)  (FT/S)
SOUTHERN BUOY              40 40   40/ 17/ 21 1015.7          5/ 6
HARRISON CRIB              43      40/ 18/ 20   N/A
BURNHAM HARBOR             43      20/ 16/ 20   N/A
CALUMET HARBOR             44      30/ 11/ 15 1012.8F
BURNS HARBOR               46      CALM  /  1 1012.9F
MICHIGAN CITY              45      70/  9/ 10   N/A
MICHIGAN CITY 6N           46 47                N/A           4/ 6
ST. JOSEPH                 45 46  140/  8/ 14 1014.3S         3/ 6
$$

ILZ025>027-034>036-040-047-049-050-058-095>099-301100-
WEST-CENTRAL ILLINOIS

CITY           SKY/WX    TMP DP  RH WIND       PRES   REMARKS
QUINCY         LGT RAIN  46  45  96 E12       29.78F
GALESBURG*     LGT RAIN  44  44 100 NE14      29.87S
MACOMB*        LGT RAIN  46  45  99 E5        29.86F
JACKSONVILLE*  RAIN      46  45  99 N3        29.82F
PITTSFIELD*    LGT RAIN  46  46  99 E6        29.82F
$$

ILZ028>032-037-038-041>044-048-051>054-059>061-301100-
CENTRAL ILLINOIS

CITY           SKY/WX    TMP DP  RH WIND       PRES   REMARKS
PONTIAC        LGT RAIN  49  48  99 E8        29.89R
BLOOMINGTON    RAIN      48  48 100 NE8       29.86F FOG
DECATUR        LGT RAIN  52  52 100 N6        29.82F FOG
PEORIA         LGT RAIN  47  46  97 NE7       29.86F FOG
SPRINGFIELD    RAIN      49  47  93 N3        29.84F FOG
TAYLORVILLE    HVY RAIN  49  49  99 N8        29.81F
$$

ILZ033-039-045-046-055>057-062-063-301100-
EAST-CENTRAL ILLINOIS

CITY           SKY/WX    TMP DP  RH WIND       PRES   REMARKS
CHAMPAIGN      LGT RAIN  56  54  93 N6        29.84F FOG
RANTOUL*       RAIN      57  57  98 CALM      29.86R
MATTOON        RAIN      61  61 100 NE3       29.80S FOG
PARIS*         RAIN     N/A N/A N/A CALM      29.82F
$$

ILZ079-100>102-301100-
SOUTHWEST ILLINOIS

CITY           SKY/WX    TMP DP  RH WIND       PRES   REMARKS
BELLEVILLE     HVY RAIN  57  57 100 NW12      29.79F FOG
CAHOKIA*       HVY RAIN  54  52  93 NW5       29.81F FOG
$$

ILZ064>066-069>071-074>076-080>082-084>086-088>090-092>094-301100-
SOUTH-CENTRAL ILLINOIS

CITY           SKY/WX    TMP DP  RH WIND       PRES   REMARKS
CARBONDALE     RAIN      63  63 100 SW7G20    29.81F FOG
CAIRO*         HVY RAIN  64  64  97 W5        29.81F
EFFINGHAM*     TSTM      62  62 100 CALM      29.80S
MARION         RAIN      64  64 100 SW9       29.83R
MT. VERNON     HVY RAIN  63  62  97 S8G17     29.79R FOG
CENTRALIA*     HVY RAIN  63  63  99 SW16G26   29.80R
SALEM*         HVY RAIN  64  62  94 E3        29.75F
$$

ILZ067-068-072-073-078-083-087-091-301100-
SOUTHEAST ILLINOIS

CITY           SKY/WX    TMP DP  RH WIND       PRES   REMARKS
LAWRENCEVILLE  CLOUDY    64  63  96 E5        29.79F
FLORA*         RAIN      64  63  96 E5        29.77F
FAIRFIELD*     RAIN      63  63 100 E5        29.75F
HARRISBURG*    HVY RAIN  65  64  97 S15G23    29.83R
ROBINSON*      LGT RAIN  62  62  99 SE5       29.80F
CARMI*         RAIN      64  63  97 SE7       29.77F
$$

ABBREVIATIONS USED IN REMARKS
   TC - TEMPERATURE IN CELSIUS
  WCI - WIND CHILL INDEX
   HX - HEAT INDEX
  VSB - VISIBILITY
$$





USA.gov is the U.S. government's official web portal to all federal, state and local government web resources and services.